Stations météo

réclame
Mon MeteoGroup
Lerwick, Grande-Bretagne (3005): Température de l'air & dewpoint: 13.10.2017 21:00:00 - 19.10.2017 21:00:00 (BST)Lerwick, Grande-Bretagne (3005): Température de l'air -20cm & Température de l'air -100cm: 13.10.2017 21:00:00 - 19.10.2017 21:00:00 (BST)Lerwick, Grande-Bretagne (3005): Vitesse du vent & gusts: 13.10.2017 21:00:00 - 19.10.2017 21:00:00 (BST)Lerwick, Grande-Bretagne (3005): Direction du vent: 13.10.2017 21:00:00 - 19.10.2017 21:00:00 (BST)Lerwick, Grande-Bretagne (3005): reduced air pressure: 13.10.2017 21:00:00 - 19.10.2017 21:00:00 (BST)Lerwick, Grande-Bretagne (3005): visibility: 13.10.2017 21:00:00 - 19.10.2017 21:00:00 (BST)Lerwick, Grande-Bretagne (3005): Ensoleillement: 13.10.2017 21:00:00 - 19.10.2017 21:00:00 (BST)Lerwick, Grande-Bretagne (3005): Quantités de précipitations: 13.10.2017 21:00:00 - 19.10.2017 21:00:00 (BST)
Date & Time tt [°C] td [°C] tt -20cm [°C] tt -100cm [°C] ff [km/h] ff [knt] fx [km/h] fx [knt] dd ppp [hPa] vv [km] sd [min] rr [mm]
19.10.2017 21:00:00 - - - - - - - - - - - - -
19.10.2017 20:00:00 11,0 10,8 - - 35 19 54 29 ESE 1003,3 3,5 0 0,0
19.10.2017 19:00:00 10,9 10,7 - - 37 20 54 29 SE 1003,8 6 0 0,4
19.10.2017 18:00:00 10,9 10,8 - - 37 20 50 27 SE 1004,3 4,0 0 0,2
19.10.2017 17:00:00 10,8 10,7 - - 34 18 52 28 SE 1005,0 1,5 0 0,2
19.10.2017 16:00:00 10,8 10,5 - - 35 19 48 26 SE 1005,6 7 0 0,4
19.10.2017 15:00:00 10,4 10,0 - - 34 18 48 26 SE 1006,3 3,0 0 1,8
19.10.2017 14:00:00 10,5 9,5 - - 35 19 50 27 SE 1007,0 10 0 0,0
19.10.2017 13:00:00 10,3 9,3 - - 39 21 54 29 SE 1007,4 15 0 0,2
19.10.2017 12:00:00 10,4 9,0 - - 37 20 52 28 SE 1007,7 12 0 0,0
19.10.2017 11:00:00 10,3 8,7 - - 35 19 50 27 SE 1008,0 18 0 0,0
19.10.2017 10:00:00 10,2 8,8 9,7 10,5 31 17 - - SE 1008,3 22 0 0,0
19.10.2017 09:00:00 9,9 8,2 - - 26 14 - - SSE 1008,2 22 0 0,0
19.10.2017 08:00:00 9,7 7,9 - - 28 15 - - SSE 1008,0 27 0 0,0
19.10.2017 07:00:00 9,4 7,6 - - 26 14 - - SSE 1008,5 30 0 0,0
19.10.2017 06:00:00 9,4 7,7 - - 29 16 - - SSE 1008,7 30 0 0,0
19.10.2017 05:00:00 9,6 8,1 - - 31 17 - - SSE 1009,0 25 0 0,0
19.10.2017 04:00:00 9,9 8,5 - - 31 17 48 26 SE 1009,5 24 0 0,4
19.10.2017 03:00:00 10,1 9,3 - - 31 17 - - SE 1009,9 21 0 0,0
19.10.2017 02:00:00 10,0 9,6 - - 31 17 54 29 ESE 1010,7 9 0 0,2
19.10.2017 01:00:00 10,0 9,2 - - 37 20 50 27 ESE 1011,2 6 - 0,0
19.10.2017 00:00:00 9,6 8,1 - - 35 19 50 27 E 1012,0 21 0 0,0
18.10.2017 23:00:00 9,1 6,8 - - 31 17 - - E 1012,5 29 0 0,0
18.10.2017 22:00:00 9,4 6,4 - - 29 16 48 26 E 1013,5 45 0 0,0
18.10.2017 21:00:00 9,3 6,4 - - 26 14 - - E 1014,3 40 0 0,0
18.10.2017 20:00:00 9,1 5,8 - - 28 15 - - E 1014,8 50 0 0,0
18.10.2017 19:00:00 8,8 6,0 - - 28 15 - - E 1014,8 50 0 0,0
18.10.2017 18:00:00 8,6 5,5 - - 28 15 - - E 1015,5 50 0 0,0
18.10.2017 17:00:00 8,7 5,5 - - 24 13 - - E 1015,9 50 0 0,0
18.10.2017 16:00:00 8,7 5,3 - - 22 12 - - ENE 1016,4 50 0 0,0
18.10.2017 15:00:00 8,9 5,5 - - 21 11 - - ENE 1016,8 50 0 0,0
18.10.2017 14:00:00 8,6 5,1 - - 22 12 - - ENE 1017,1 45 0 0,0
18.10.2017 13:00:00 8,9 5,7 - - 22 12 - - ENE 1017,4 45 0 0,0
18.10.2017 12:00:00 8,6 4,9 - - 18 10 - - ENE 1017,7 45 0 0,0
18.10.2017 11:00:00 8,4 5,0 - - 21 11 - - ENE 1017,9 45 0 0,0
18.10.2017 10:00:00 8,0 5,0 9,7 10,5 18 10 - - ENE 1017,9 45 0 0,0
18.10.2017 09:00:00 7,9 5,3 - - 18 10 - - ENE 1017,7 40 0 0,0
18.10.2017 08:00:00 7,5 4,8 - - 21 11 - - NE 1017,2 40 0 0,0
18.10.2017 07:00:00 6,7 6,2 - - 16 9 - - NE 1017,1 35 0 0,2
18.10.2017 06:00:00 7,1 5,3 - - 15 8 - - NNE 1017,2 30 0 0,0
18.10.2017 05:00:00 7,1 4,4 - - 18 10 - - NE 1017,1 40 0 0,0
18.10.2017 04:00:00 7,6 4,8 - - 16 9 - - NNE 1016,7 35 0 0,0
18.10.2017 03:00:00 7,5 4,4 - - 21 11 - - N 1016,8 40 0 0,0
18.10.2017 02:00:00 6,9 5,8 - - 11 6 - - N 1016,6 20 0 0,0
18.10.2017 01:00:00 6,6 5,7 - - 16 9 - - N 1016,0 25 - 0,0
18.10.2017 00:00:00 6,8 5,0 - - 18 10 - - N 1015,4 50 0 0,0
17.10.2017 23:00:00 7,6 5,1 - - 24 13 - - N 1014,8 50 0 0,0
17.10.2017 22:00:00 7,8 4,6 - - 24 13 - - N 1014,1 35 0 0,0
17.10.2017 21:00:00 7,7 5,0 - - 31 17 50 27 N 1013,1 25 0 0,0
17.10.2017 20:00:00 8,0 4,2 - - 35 19 50 27 NNE 1012,1 25 0 0,0
17.10.2017 19:00:00 8,0 4,5 - - 34 18 52 28 N 1011,1 24 0 0,0
17.10.2017 18:00:00 8,1 4,4 - - 37 20 65 35 N 1009,6 30 6 0,0
17.10.2017 17:00:00 8,7 4,5 - - 44 24 67 36 N 1007,7 26 12 0,0
17.10.2017 16:00:00 8,8 5,0 - - 50 27 68 37 N 1006,1 24 0 0,0
17.10.2017 15:00:00 8,9 5,6 - - 52 28 76 41 N 1004,5 17 0 0,0
17.10.2017 14:00:00 8,9 6,5 - - 59 32 78 42 NNE 1002,9 9 0 0,0
17.10.2017 13:00:00 9,5 6,0 - - 59 32 87 47 NNE 1001,2 16 0 0,0
17.10.2017 12:00:00 - - - - - - - - - - - - -
17.10.2017 11:00:00 9,0 6,8 - - 59 32 93 50 NE 997,8 9 0 0,0
17.10.2017 10:00:00 8,7 7,2 10,2 - 61 33 91 49 NE 997,0 8 0 0,2
17.10.2017 09:00:00 8,7 7,6 - - 65 35 96 52 NE 995,8 9 0 0,4
17.10.2017 08:00:00 8,5 7,6 - - 59 32 89 48 NE 995,4 6 0 1,0
17.10.2017 07:00:00 8,6 8,1 - - 59 32 91 49 ENE 995,0 6 0 1,4
17.10.2017 06:00:00 8,7 8,3 - - 63 34 85 46 ENE 995,0 2,5 0 2,4
17.10.2017 05:00:00 8,8 8,3 - - 61 33 85 46 ENE 995,2 3,0 0 1,8
17.10.2017 04:00:00 8,8 8,3 - - 63 34 89 48 ENE 995,9 2,2 0 4,8
17.10.2017 03:00:00 8,7 8,1 - - 61 33 85 46 ENE 997,0 2,5 0 2,2
17.10.2017 02:00:00 8,7 8,4 - - 59 32 80 43 ENE 998,4 1,6 0 6,4
17.10.2017 01:00:00 8,2 7,8 - - 61 33 87 47 ENE 999,8 2,5 - 2,4
17.10.2017 00:00:00 8,5 8,1 - - 59 32 85 46 ENE 1001,6 1,8 0 3,8
16.10.2017 23:00:00 8,1 7,7 - - 63 34 81 44 ENE 1003,0 2,2 0 2,4
16.10.2017 22:00:00 8,4 7,0 - - 59 32 78 42 E 1004,3 3,5 0 0,4
16.10.2017 21:00:00 9,1 7,2 - - 50 27 68 37 E 1006,9 25 0 0,2
16.10.2017 20:00:00 9,2 7,4 - - 37 20 54 29 E 1008,8 45 0 0,4
16.10.2017 19:00:00 9,5 8,6 - - 28 15 - - ESE 1011,4 10 0 0,8
16.10.2017 18:00:00 9,5 8,6 - - 28 15 - - ESE 1011,4 10 0 0,0
16.10.2017 17:00:00 10,0 8,3 - - 16 9 - - E 1012,0 45 0 0,0
16.10.2017 16:00:00 10,2 8,0 - - 11 6 - - E 1012,6 40 0 0,0
16.10.2017 15:00:00 10,6 8,3 - - 5 3 - - S 1014,0 45 0 0,0
16.10.2017 14:00:00 11,3 7,8 - - 9 5 - - S 1014,4 40 36 0,0
16.10.2017 13:00:00 11,8 7,1 - - 15 8 - - SW 1015,0 35 48 0,0
16.10.2017 12:00:00 11,5 8,1 - - 11 6 - - SSW 1015,2 45 30 0,0
16.10.2017 11:00:00 9,4 7,7 - - 11 6 - - SW 1014,8 45 0 0,0
16.10.2017 10:00:00 9,4 7,9 10,4 - 5 3 - - SSW 1014,1 45 0 0,0
16.10.2017 09:00:00 8,6 7,1 - - 5 3 - - SW 1014,3 24 0 0,0
16.10.2017 08:00:00 8,1 6,5 - - 9 5 - - SW 1013,9 30 0 0,0
16.10.2017 07:00:00 8,2 6,3 - - 4 2 - - SW 1013,7 35 0 0,0
16.10.2017 06:00:00 7,9 6,4 - - 5 3 - - SSW 1013,2 30 0 0,0
16.10.2017 05:00:00 8,7 6,0 - - 8 4 - - WNW 1012,8 30 0 0,0
16.10.2017 04:00:00 8,6 6,2 - - 15 8 - - WNW 1012,8 35 0 0,0
16.10.2017 03:00:00 8,8 6,1 - - 13 7 - - W 1012,7 25 0 0,0
16.10.2017 02:00:00 8,7 6,6 - - 13 7 - - W 1012,4 18 0 0,0
16.10.2017 01:00:00 8,2 6,2 - - 8 4 - - W 1011,4 25 - 0,0
16.10.2017 00:00:00 8,6 5,9 - - 16 9 - - WNW 1010,6 25 0 0,0
15.10.2017 23:00:00 8,6 6,5 - - 22 12 50 27 W 1009,0 9 0 0,2
15.10.2017 22:00:00 8,5 6,1 - - 34 18 54 29 WNW 1007,3 30 0 0,0
15.10.2017 21:00:00 8,5 6,4 - - 39 21 67 36 WNW 1005,4 9 0 0,0
15.10.2017 20:00:00 9,0 6,4 - - 54 29 85 46 WNW 1003,0 20 0 0,0
15.10.2017 19:00:00 9,2 7,4 - - 63 34 91 49 W 1000,3 8 0 0,0
15.10.2017 18:00:00 10,9 9,5 - - 72 39 94 51 WSW 996,0 9 0 0,0
15.10.2017 17:00:00 13,8 11,1 - - 70 38 98 53 SSW 995,0 20 0 0,0
15.10.2017 16:00:00 13,6 11,4 - - 52 28 70 38 SSW 996,0 20 0 0,0
15.10.2017 15:00:00 13,7 11,2 - - 48 26 68 37 SSW 996,7 18 0 0,0
15.10.2017 14:00:00 14,1 11,1 - - 50 27 83 45 SSW 997,5 35 0 0,2
15.10.2017 13:00:00 13,7 11,2 - - 46 25 65 35 SSW 998,1 25 0 0,0
15.10.2017 12:00:00 13,3 11,6 - - 52 28 68 37 SSW 998,7 20 0 1,0
15.10.2017 11:00:00 13,0 11,4 - - 54 29 76 41 SSW 999,2 6 0 0,2
15.10.2017 10:00:00 12,8 11,5 10,4 - 44 24 59 32 SSW 999,9 10 0 1,0
15.10.2017 09:00:00 11,6 11,4 - - 28 15 - - S 1001,0 3,0 0 1,0
15.10.2017 08:00:00 11,4 11,3 - - 24 13 - - S 1001,8 2,5 0 2,0
15.10.2017 07:00:00 10,2 10,0 - - 16 9 - - ESE 1003,5 5 0 2,6
15.10.2017 06:00:00 8,5 8,1 - - 21 11 - - E 1005,9 5 0 1,4
15.10.2017 05:00:00 8,0 7,6 - - 18 10 - - ESE 1007,7 7 0 2,2
15.10.2017 04:00:00 8,7 6,3 - - 15 8 - - SSE 1009,0 9 0 0,6
15.10.2017 03:00:00 9,7 6,2 - - 16 9 - - SSW 1010,3 12 0 0,0
15.10.2017 02:00:00 10,1 7,9 - - 16 9 - - SSW 1010,7 9 0 0,0
15.10.2017 01:00:00 10,4 8,4 - - 22 12 - - SSW 1011,3 12 - 0,0
15.10.2017 00:00:00 10,4 8,2 - - 21 11 - - SW 1011,7 10 0 0,0
14.10.2017 23:00:00 10,7 8,0 - - 26 14 - - WSW 1011,3 12 0 0,0
14.10.2017 22:00:00 10,3 7,7 - - 28 15 61 33 WSW 1011,2 12 0 0,0
14.10.2017 21:00:00 10,3 7,8 - - 39 21 57 31 WSW 1010,8 12 0 0,0
14.10.2017 20:00:00 10,2 8,2 - - 39 21 63 34 WSW 1010,5 15 0 0,0
14.10.2017 19:00:00 10,8 7,6 - - 39 21 68 37 WSW 1009,8 15 0 0,0
14.10.2017 18:00:00 10,9 7,7 - - 52 28 70 38 WSW 1009,0 12 0 0,0
14.10.2017 17:00:00 11,2 7,4 - - 54 29 78 42 WSW 1008,7 15 6 0,0
14.10.2017 16:00:00 10,9 7,7 - - 50 27 83 45 WSW 1008,3 15 18 0,0
14.10.2017 15:00:00 11,5 8,3 - - 59 32 76 41 SW 1007,8 12 24 0,0
14.10.2017 14:00:00 11,7 7,9 - - 55 30 87 47 SW 1007,2 15 30 0,0
14.10.2017 13:00:00 11,7 8,0 - - 59 32 80 43 WSW 1006,9 8 30 0,0
14.10.2017 12:00:00 10,3 8,5 - - 61 33 91 49 SW 1006,1 6 24 0,8
14.10.2017 11:00:00 11,1 8,2 - - 57 31 83 45 SW 1005,9 18 30 0,0
14.10.2017 10:00:00 11,1 7,5 10,4 - 54 29 72 39 SW 1005,5 7 18 0,0
14.10.2017 09:00:00 10,6 7,6 - - 55 30 80 43 SW 1004,8 15 0 0,2
14.10.2017 08:00:00 10,5 6,9 - - 57 31 81 44 SW 1004,1 12 0 0,4
14.10.2017 07:00:00 9,7 7,6 - - 54 29 78 42 SW 1004,2 12 0 0,4
14.10.2017 06:00:00 10,6 7,1 - - 44 24 80 43 WSW 1003,6 8 0 1,4
14.10.2017 05:00:00 10,8 6,3 - - 55 30 72 39 SW 1003,3 10 0 0,0
14.10.2017 04:00:00 10,4 7,3 - - 54 29 78 42 SW 1003,4 12 0 0,0
14.10.2017 03:00:00 11,4 6,5 - - 57 31 76 41 SW 1003,1 12 0 0,0
14.10.2017 02:00:00 10,8 8,1 - - 50 27 68 37 SW 1003,2 12 0 0,0
14.10.2017 01:00:00 10,8 7,4 - - 52 28 78 42 SW 1002,8 12 - 0,0
14.10.2017 00:00:00 10,9 6,1 - - 59 32 81 44 SW 1002,3 12 0 0,0
13.10.2017 23:00:00 10,8 6,8 - - 57 31 85 46 SW 1001,9 12 0 0,6
13.10.2017 22:00:00 10,5 8,9 - - 44 24 74 40 SW 1001,7 12 0 0,6
13.10.2017 21:00:00 11,2 8,3 - - 48 26 68 37 SW 1001,5 6 0 0,2

tt = Température de l'air
td = dewpoint
tt -20cm = Température de l'air -20cm
tt -100cm = Température de l'air -100cm
ff = Vitesse du vent
fx = gusts
dd = Direction du vent
ppp = reduced air pressure
vv = visibility
sd = Ensoleillement
rr = Quantités de précipitations

stations d'obs. à proximité